Simultaneous Nadir Overpasses (SNOs) Predictions

Prediction of SNOs between GOES-15 and TERRA Satellite Orbit:

Table of predicted SNOs for the next 14.0 days since TLE Epoch: 5/24/2014
Index Date Time (GOES-15) GOES-15 Lat,Lon TERRA Lat,Lon Distance(km) Time Diff (sec)
1 05/25/2014 07:16:32 0.07,-134.93 0.68,-132.02 331.69 80
2 05/25/2014 19:40:28 -0.06,-134.95 0.39,-137.18 252.37 80
3 05/27/2014 19:25:37 -0.06,-135.03 -0.21,-134.22 91.73 80
4 05/28/2014 07:49:42 0.06,-135.05 -0.86,-139.42 496.44 80
5 05/29/2014 19:13:27 -0.07,-135.10 -0.89,-131.27 435.21 80
6 05/30/2014 07:37:31 0.06,-135.12 -0.25,-136.46 153.08 80
7 06/01/2014 07:22:41 0.07,-135.18 0.44,-133.52 189.89 80
8 06/01/2014 19:46:36 -0.06,-135.20 0.68,-138.67 394.72 80
9 06/03/2014 19:34:25 -0.07,-135.26 0.04,-135.71 52.16 80
10 06/05/2014 19:19:34 -0.08,-135.31 -0.61,-132.76 290.09 80
11 06/06/2014 07:43:38 0.07,-135.33 -0.51,-137.95 298.25 80




NCC Satellite Simultaneous Nadir Overpasses (SNOs) Prediction Service
